Weather History for KBBB - December, 2013

Change the Weather History Date:

Monday, December 2, 2013

  Actual Average Record
Temperature  
Mean Temperature 32 °F -  
Max Temperature 35 °F 28 °F 59 °F (1998)
Min Temperature 28 °F 12 °F -14 °F (1985)
Degree Days  
Heating Degree Days 34    
Moisture  
Dew Point 30 °F    
Average Humidity 91    
Maximum Humidity 100    
Minimum Humidity 75    
Precipitation  
Precipitation 0.00 in - - ()
Sea Level Pressure  
Sea Level Pressure 29.61 in    
Wind  
Wind Speed 10 mph (SSE)    
Max Wind Speed 15 mph    
Max Gust Speed 21 mph    
Visibility 4 miles    
Events      
Averages and records for this station are not official NWS values.
T = Trace of Precipitation, MM = Missing Value Source: NWS Daily Summary

Daily Weather History Graph

Daily Weather History Graph

Search for Another Location

Airport or City:

Trip Planner

Search our weather history database for the weather conditions in past years. The results will help you decide how hot, cold, wet, or windy it might be!

Date:

Astronomy

Dec. 02, 2013 Rise Set
Actual Time 7:43 AM CST 4:40 PM CST
Civil Twilight 7:09 AM CST 5:14 PM CST
Nautical Twilight 6:32 AM CST 5:51 PM CST
Astronomical Twilight 5:57 AM CST 6:26 PM CST
Moon 7:07 AM CST (12/2) 4:46 PM CST (12/2)
Length of Visible Light 10h 04m
Length of Day
8h 57m
Waning Crescent, 0% of the Moon is Illuminated
Dec 2
Waning Crescent
Dec 2
New
Dec 9
First Quarter
Dec 17
Full
Dec 25
Last Quarter

Hourly Weather History & Observations

Time (CST) Temp. Windchill Dew Point Humidity Pressure Visibility Wind Dir Wind Speed Gust Speed Precip Events Conditions
12:12 AM 30.2 °F 20.8 °F 23.0 °F 75% 29.82 in 10.0 mi South 11.5 mph - N/A   Overcast
12:33 AM 28.4 °F 18.0 °F 23.0 °F 80% 29.82 in 10.0 mi South 12.7 mph - N/A   Overcast
12:52 AM 28.4 °F 18.0 °F 23.0 °F 80% 29.81 in 10.0 mi SSE 12.7 mph 18.4 mph N/A   Scattered Clouds
1:13 AM 30.2 °F 20.8 °F 23.0 °F 75% 29.80 in 10.0 mi SSE 11.5 mph 17.3 mph N/A   Mostly Cloudy
1:32 AM 30.2 °F 20.8 °F 23.0 °F 75% 29.79 in 10.0 mi South 11.5 mph - N/A   Overcast
1:52 AM 30.2 °F 20.2 °F 24.8 °F 80% 29.78 in 10.0 mi SSE 12.7 mph 16.1 mph N/A   Overcast
2:13 AM 30.2 °F 19.3 °F 24.8 °F 80% 29.78 in 10.0 mi South 15.0 mph - N/A   Overcast
2:32 AM 30.2 °F 20.2 °F 24.8 °F 80% 29.78 in 10.0 mi South 12.7 mph - N/A   Mostly Cloudy
2:52 AM 30.2 °F 19.8 °F 24.8 °F 80% 29.76 in 10.0 mi SSE 13.8 mph 20.7 mph N/A   Overcast
3:13 AM 30.2 °F 20.8 °F 24.8 °F 80% 29.75 in 10.0 mi South 11.5 mph 19.6 mph N/A   Mostly Cloudy
3:32 AM 30.2 °F 20.8 °F 24.8 °F 80% 29.74 in 10.0 mi South 11.5 mph - N/A   Mostly Cloudy
3:52 AM 30.2 °F 21.3 °F 24.8 °F 80% 29.73 in 10.0 mi South 10.4 mph - N/A   Overcast
4:13 AM 30.2 °F 21.3 °F 24.8 °F 80% 29.72 in 10.0 mi South 10.4 mph - N/A   Mostly Cloudy
4:32 AM 30.2 °F 21.9 °F 24.8 °F 80% 29.71 in 10.0 mi South 9.2 mph - N/A   Overcast
4:52 AM 30.2 °F 21.9 °F 24.8 °F 80% 29.71 in 10.0 mi South 9.2 mph - N/A   Overcast
5:13 AM 30.2 °F 21.3 °F 24.8 °F 80% 29.69 in 7.0 mi South 10.4 mph - N/A   Overcast
5:32 AM 30.2 °F 20.8 °F 26.6 °F 86% 29.68 in 5.0 mi SSE 11.5 mph 16.1 mph N/A   Overcast
5:53 AM 30.2 °F 24.3 °F 28.4 °F 93% 29.68 in 4.0 mi SSE 5.8 mph - N/A   Overcast
6:13 AM 30.2 °F 21.3 °F 28.4 °F 93% 29.67 in 4.0 mi South 10.4 mph - N/A   Overcast
6:32 AM 30.2 °F 23.4 °F 28.4 °F 93% 29.67 in 4.0 mi SSE 6.9 mph 17.3 mph N/A   Overcast
6:53 AM 30.2 °F 22.6 °F 28.4 °F 93% 29.66 in 4.0 mi SE 8.1 mph - N/A   Overcast
7:13 AM 30.2 °F 21.3 °F 28.4 °F 93% 29.65 in 4.0 mi SE 10.4 mph - N/A   Overcast
7:32 AM 30.2 °F 21.9 °F 28.4 °F 93% 29.64 in 5.0 mi SE 9.2 mph - N/A   Overcast
7:53 AM 30.2 °F 21.3 °F 28.4 °F 93% 29.63 in 5.0 mi SE 10.4 mph - N/A   Overcast
8:13 AM 30.2 °F 20.8 °F 28.4 °F 93% 29.63 in 5.0 mi SSE 11.5 mph - N/A   Mostly Cloudy
8:32 AM 32.0 °F 24.8 °F 30.2 °F 93% 29.63 in 3.0 mi SSE 8.1 mph - N/A   Overcast
8:53 AM 32.0 °F 24.8 °F 30.2 °F 93% 29.62 in 3.0 mi SSE 8.1 mph - N/A   Mostly Cloudy
9:12 AM 32.0 °F 23.6 °F 30.2 °F 93% 29.62 in 3.0 mi SSE 10.4 mph - N/A   Scattered Clouds
9:32 AM 32.0 °F 24.2 °F 30.2 °F 93% 29.62 in 3.0 mi SSE 9.2 mph 16.1 mph N/A   Mostly Cloudy
9:53 AM 32.0 °F 23.0 °F 30.2 °F 93% 29.61 in 3.0 mi SE 11.5 mph 17.3 mph N/A   Mostly Cloudy
10:12 AM 32.0 °F 23.6 °F 30.2 °F 93% 29.60 in 4.0 mi SSE 10.4 mph 16.1 mph N/A   Mostly Cloudy
10:32 AM 33.8 °F 25.8 °F 30.2 °F 87% 29.59 in 4.0 mi SSE 10.4 mph 18.4 mph N/A   Mostly Cloudy
10:53 AM 33.8 °F 25.8 °F 30.2 °F 87% 29.59 in 3.0 mi SSE 10.4 mph - N/A   Overcast
11:12 AM 33.8 °F 25.3 °F 30.2 °F 87% 29.58 in 2.5 mi SSE 11.5 mph - N/A   Overcast
11:33 AM 33.8 °F 26.4 °F 30.2 °F 87% 29.58 in 2.0 mi SSE 9.2 mph 17.3 mph N/A   Overcast
11:52 AM 33.8 °F 25.3 °F 30.2 °F 87% 29.57 in 2.0 mi SSE 11.5 mph 18.4 mph N/A   Overcast
12:12 PM 33.8 °F 26.4 °F 32.0 °F 93% 29.56 in 2.5 mi South 9.2 mph - N/A   Overcast
12:33 PM 33.8 °F 26.4 °F 30.2 °F 87% 29.55 in 2.5 mi SSE 9.2 mph 17.3 mph N/A   Overcast
12:52 PM 33.8 °F 25.3 °F 32.0 °F 93% 29.55 in 3.0 mi South 11.5 mph 18.4 mph N/A   Overcast
1:12 PM 33.8 °F 25.8 °F 32.0 °F 93% 29.54 in 3.0 mi South 10.4 mph - N/A   Overcast
1:33 PM 33.8 °F 25.8 °F 32.0 °F 93% 29.54 in 3.0 mi South 10.4 mph - N/A   Mostly Cloudy
1:52 PM 33.8 °F 26.4 °F 32.0 °F 93% 29.51 in 2.5 mi SE 9.2 mph - N/A   Mostly Cloudy
2:13 PM 33.8 °F 27.0 °F 33.8 °F 100% 29.51 in 2.5 mi SE 8.1 mph 16.1 mph N/A   Overcast
2:33 PM 35.6 °F 28.0 °F 33.8 °F 93% 29.53 in 3.0 mi South 10.4 mph - N/A   Overcast
2:52 PM 35.6 °F 27.5 °F 33.8 °F 93% 29.52 in 3.0 mi SSE 11.5 mph - N/A   Overcast
3:12 PM 35.6 °F 29.2 °F 33.8 °F 93% 29.52 in 3.0 mi SSE 8.1 mph - N/A   Overcast
3:32 PM 35.6 °F 30.7 °F 33.8 °F 93% 29.52 in 3.0 mi SSE 5.8 mph - N/A   Overcast
3:53 PM 35.6 °F 28.6 °F 33.8 °F 93% 29.52 in 4.0 mi South 9.2 mph - N/A   Overcast
4:12 PM 35.6 °F 29.2 °F 33.8 °F 93% 29.52 in 4.0 mi SSE 8.1 mph - N/A   Mostly Cloudy
4:33 PM 35.6 °F 29.2 °F 33.8 °F 93% 29.51 in 4.0 mi SE 8.1 mph - N/A   Overcast
4:53 PM 35.6 °F 32.8 °F 33.8 °F 93% 29.52 in 4.0 mi SSE 3.5 mph - N/A   Overcast
5:12 PM 35.6 °F 30.7 °F 33.8 °F 93% 29.53 in 4.0 mi SSE 5.8 mph - N/A   Overcast
5:33 PM 35.6 °F 29.2 °F 33.8 °F 93% 29.53 in 4.0 mi South 8.1 mph - N/A   Overcast
5:53 PM 35.6 °F 29.2 °F 33.8 °F 93% 29.54 in 4.0 mi South 8.1 mph - N/A   Overcast
6:12 PM 35.6 °F 28.0 °F 33.8 °F 93% 29.54 in 4.0 mi SSE 10.4 mph - N/A   Overcast
6:33 PM 35.6 °F 29.2 °F 33.8 °F 93% 29.54 in 3.0 mi SSE 8.1 mph - N/A   Overcast
6:53 PM 35.6 °F 32.8 °F 33.8 °F 93% 29.54 in 3.0 mi SSE 3.5 mph - N/A   Overcast
7:12 PM 35.6 °F - 33.8 °F 93% 29.55 in 3.0 mi Calm Calm - N/A   Overcast
7:33 PM 33.8 °F - 33.8 °F 100% 29.55 in 3.0 mi Calm Calm - N/A   Mostly Cloudy
7:53 PM 33.8 °F - 33.8 °F 100% 29.55 in 2.0 mi Calm Calm - N/A   Overcast
8:12 PM 33.8 °F 30.8 °F 33.8 °F 100% 29.55 in 2.0 mi NW 3.5 mph - N/A   Overcast
8:33 PM 33.8 °F - 33.8 °F 100% 29.54 in 2.0 mi Calm Calm - N/A   Overcast
8:52 PM 33.8 °F 30.8 °F 33.8 °F 100% 29.55 in 1.8 mi North 3.5 mph - N/A   Overcast
9:12 PM 33.8 °F - 33.8 °F 100% 29.56 in 2.0 mi Calm Calm - N/A   Overcast
9:33 PM 33.8 °F - 33.8 °F 100% 29.56 in 1.8 mi Calm Calm - N/A   Overcast
9:52 PM 33.8 °F - 33.8 °F 100% 29.57 in 1.5 mi Calm Calm - N/A   Overcast
10:13 PM 33.8 °F 30.8 °F 33.8 °F 100% 29.57 in 1.5 mi North 3.5 mph - N/A   Overcast
10:32 PM 33.8 °F 29.6 °F 33.8 °F 100% 29.57 in 1.8 mi North 4.6 mph - N/A   Overcast
10:52 PM 33.8 °F - 33.8 °F 100% 29.58 in 1.8 mi Calm Calm - N/A   Overcast
11:13 PM 33.8 °F - 33.8 °F 100% 29.57 in 1.5 mi Calm Calm - N/A   Overcast
11:32 PM 33.8 °F - 32.0 °F 93% 29.57 in 1.2 mi Calm Calm - N/A   Overcast
11:52 PM 33.8 °F - 32.0 °F 93% 29.57 in 1.0 mi Calm Calm - N/A   Overcast